Tracking 26442 objects as of 7-Dec-2022
HD Live streaming from Space Station
objects crossing your sky now

NOAA 16 DEB

Track NOAA 16 DEB now!
10-day predictions


NORAD ID: 41534
Int'l Code: 2000-055NJ
Perigee: 842.4 km
Apogee: 877.8 km
Inclination: 98.9 °
Period: 102.0 minutes
Semi major axis: 7231 km
RCS: Unknown
Launch date: September 21, 2000
Source: United States (US)
Launch site: AIR FORCE WESTERN TEST RANGE (AFWTR)

Note: This is SATELLITE DEBRIS
aabbcc
Your satellite tracking list
Your tracking list is empty




NASA's NSSDC Master Catalog

Two Line Element Set (TLE):
1 41534U 00055NJ  22339.39954165  .00003370  00000-0  18635-2 0  9996
2 41534  98.8552  44.1095 0024502 293.8097  66.0506 14.11883463339962
Source of the keplerian elements: AFSPC